COSMOS 734

Satellite information

Favourite Embed

Satellite Type and Status

PAYLOADIN ORBIT

Key statistics

Satellite COSMOS 734 at a glance.

Uptime

18468

Days in orbit

Revolutions

≈ 12.5

Per day

Orbit

LEO

Low Earth Orbit

Inclination

74.0

Latest

Satellite identification and parameters

Extended collection of information and parameters for COSMOS 734.

Object identification

Identified? True

Debris? False

Object name: COSMOS 734

International designator: 1975-045C

Object number (NORAD): 7823

Object ID (CCSDS): 7823

Country: COMMONWEALTH OF INDEPENDENT STATES (CIS)

Current information (Y/N): Y

RCS size: MEDIUM

Orbital parameters

Period: 115.035 minutes

Inclination: 74.0176 deg

SMA: 7835.131 km

Apoapsis: 1471.009 km

Periapsis: 1442.983 km

RAAN: 104.0199 deg

Eccentricy: 0.0017885

Argument of periapsis: 11.3342 deg

Mean anomaly: 62.075 deg

Mean motion: 12.5179539 rev/day

Mean motion (dot): -0.00000027 rev/day2

B* drag term: -0.000068442953 1/REarth

Two-line elements (TLE)

Creation date: Dec. 19, 2025, 2:08 a.m.

Reference frame: TEME

Reference center: EARTH

Epoch: Dec. 18, 2025, 6:32 p.m. UTC

TLE line 0: 0 COSMOS 734

TLE line 1: 1 07823U 75045C 25352.77245469 -.00000027 00000-0 -68443-4 0 9992

TLE line 2: 2 07823 74.0176 104.0199 0017885 11.3342 62.0750 12.51795390310493

Live tracking on map

Real-time ground track for satellite COSMOS 734.

In-orbit conjunctions

A list of the most updated potential collisions computed for object COSMOS 734.

Target Orbit TCA Probability of collision Miss distance Type
COSMOS 1723 LEO 2024-06-22 08:44:40 0.0001330661 165.0 (m) PAYLOAD

Associated space launch

Military communications satellites

COSMOS 734 was lifted into orbit during the mission ‘Kosmos-3M | Strela-1M 89-96’, on board a Kosmos-3M space rocket.

The launch took place on May 28, 1975, 12:25 a.m. from 132/1 (132L).

For more information about the launch, click the button.

Launch to space Kosmos-3M | Strela-1M 89-96
Kosmos-3M | Strela-1M 89-96

Agency: N/A

Status: Launch Successful

Launch date: May 28, 1975, 12:25 a.m. UTC

Rocket: Kosmos-3M

Launch pad: 132/1 (132L)

Location: Plesetsk Cosmodrome, Russian Federation

...

Latest news about this satellite

There are no fresh news available about this satellite. Check back as we update our databases every day.


Newsletter sign-up

Weekly statistics, charts and insights to help you stay on top of the space industry.